User: anonymous   Login
Location: Newark
(34.9471°N, 136.1778°E)
Time: 13:05:39
(UTC+00:00)
Language:

QB50P2 - Orbit

View from above orbital plane
View from above orbital plane
View from above satellite
View from above satellite

Ground track
Ground track

The orbit data is extracted from the following two-line orbital elements,

1 40032U 14033Y   20048.78269003  .00000198  00000-0  27338-4 0  9994
2 40032  97.9030 330.8559 0011371 340.0267  20.0503 14.88601130307559
Epoch (UTC): 17 February 2020 18:47:04
Eccentricity: 0.0011371
inclination: 97.9030°
perigee height: 594 km
apogee height: 610 km
right ascension of ascending node: 330.8559°
argument of perigee: 340.0267°
revolutions per day: 14.88601130
mean anomaly at epoch: 20.0503°
orbit number at epoch: 30755

The dashed part of the orbit path shows where the satellite is in the earth's shadow,  

DLR